DMSP 5D-2 F13 DEB, 40400

Orbit data source: Space-Track

DMSP 5D-2 F13 DEB, 40400 is space debris in SSO originally from a launch on Fri, 24 Mar 1995 UTC launched from the Air Force Western Test Range (AFWTR). Debris objects in space refer to the collection of defunct objects orbiting the Earth. Examples of debris include non-operational satellites, rocket bodies, and fragments generated from explosions, collisions, or faulty payload assembly.

Loading next visibility...
Identifier
40400, 1995-015M
Orbit
SSO
Country
Flag of USUS
Related business
Manufacturer
Unknown
Mission
Spacecraft
Bus & Motor
Unknown
Mass
Unknown
Launch date (UTC)
1995-03-24 (31 years ago)
Launch vehicle
Unknown
Launch site
Air Force Western Test Range (AFWTR)
Object type
Payload
Rocket body
Debris
Shape & HBR
Unknown shape, 0.1 m
Radar Cross Section
Medium (>0.1 m² and <1 m²)

Expand to show TLE details & history
Last TLE update: 9 hours ago

TLE from 9 hours ago
0 DMSP 5D-2 F13 DEB
1 40400U 95015M   26257.05642313  .00001912  00000-0  52312-3 0  9993
2 40400  98.4641 286.3608 0131834  99.6484 261.9628 14.43332236603953
Epoch: 2026-09-14T01:21Z
TLE epoch observation values (Epoch: 2026-09-14T01:21:14.958Z)
Latitude
0.00002°
Longitude
-86.99373°
Altitude
764.813 km
Speed
7.464 km/s
True Right ascension
19h 05m 26s
True Declination
0° 00' 00"
Sunlit
Object was in daylight at epoch
Visualization orbit readout
Latitude
Unknown
Longitude
Unknown
Altitude
Unknown
Speed
Unknown
Apparent Right ascension
Unknown
Apparent Declination
Unknown
Sunlit
N/A
Visualization observer readout
Local Sidereal Time
02:46:31
Azimuth
Unknown
Elevation
Unknown
Doppler factor
Unknown
Orbital elements
Apogee altitude
838.527 km
Perigee altitude
650.723 km
Semi-major axis
7,122.762 km
Eccentricity
0.01318
Inclination
98.4641°
RAAN
286.3608°
Arg. of periapsis
99.6484°
True anomaly
260.47054°
Mean anomaly
261.9628°
Eccentric anomaly
261.21631°
Mean motion
3.61053 °/min
Orbital period
99.71 mins
BSTAR
0.00052312
Loading maneuver chart data...
Computing Atmospheric mass density...
Loading historical data...
Loading historical data...
Loading historical data...
Loading historical data...
Loading historical data...
Loading historical data...
Loading historical data...

Documentation

Showing up to 5 results
|